SCP
-0 -0 -0 -0 -0 -0 0 0 0 0 0 0 0 0 0 0 0 0 0 0 0 0 0 0 0 0 0 0 0 0 0 0 0 0 0 0 0 0 0 0 0 0 0 0
-0 -0 -0 -0 -0 0 0 0 0 0 0 0 0 0 0 0 0 0 0 0 0 0 0 0 0 0 0 0 0 0 0 0 0 0 0 0 0 0 0 0 0 0 0 0
-0 -0 -0 -0 -0 0 0 0 0 0 0 0 0 0 0 0 0 0 0 0 0 0 0 0 0 0 0 0 0 0 0 0 0 0 0 0 0 0 0 0 0 0 0 0
-0 -0 -0 -0 -0 -0 0 0 0 0 0 0 0 0 0 0 0 0 0 0 0 0 0 0 0 0 0 0 0 0 0 0 0 0 0 0 0 0 0 0 0 0 0 0
-0 -0 -0 -0 -0 -0 0 0 0 0 0 0 0 0 0 0 0 0 0 0 0 0 0 0 0 0 0 0 0 0 0 0 0 0 0 0 0 0 0 0 0 0 0 0
-0 -0 -0 -0 -0 -0 0 0 0 0 0 0 0 0 0 0 0 0 0 0 0 0 0 0 0 0 0 0 0 0 0 0 0 0 0 0 0 0 0 0 0 0 0 0
-0 -0 -0 -0 -0 -0 0 0 0 0 0 0 0 0 0 0 0 0 0 0 0 0 0 0 0 0 0 0 0 0 0 0 0 0 0 0 0 0 0 0 0 0 0 0
-0 -0 -0 -0 -0 -0 0 0 0 0 0 0 0 0 0 0 0 0 0 0 0 0 0 0 0 0 0 0 0 0 0 0 0 0 0 0 0 0 0 0 0 0 -0 -0
-0 -0 -0 -0 -0 -0 0 0 0 0 0 0 0 0 0 0 0 0 0 0 0 0 0 -0 -0 0 0 -0 0 -0 -0 0 0 0 0 0 0 0 0 -0 0 0 0 0
-0 -0 -0 -0 -0 -0 0 0 0 0 0 0 0 0 0 0 0 0 0 0 0 -0 -0 -0 0 0 0 0 0 0 0 0 0 0 0 0 0 0 0 0 0 -0 -0 -0
-0 -0 -0 0 0 0 -0 0 -0 0 0 0 0 0 0 0 0 0 0 0 0 -0 -0 0 0 0 0 0 0 0 0 0 0 0 0 0 -0 -0 0 0 -0 -0 0 -0
-0 0 0 0 0 0 -0 -0 -0 -0 0 0 0 -0 -0 -0 -0 0 0 0 0 0 0 0 0 0 0 0 0 0 0 0 0 0 0 -0 -0 -0 0 0 0 -0 0 0
-0 -0 -0 -0 0 0 -0 -0 -0 -0 -0 -0 -0 -0 -0 -0 -0 0 0 -0 0 0 0 0 0 0 0 0 -0 -0 0 0 0 -0 -0 0 -0 -0 0 0 0 0 0 0
-0 -0 -0 -0 -0 -0 0 -0 -0 0 0 0 0 0 0 0 -0 -0 0 0 0 -0 0 -0 0 0 0 -0 -0 0 -0 0 -0 -0 -0 0 -0 -0 0 0 0 0 0 0
-0 -0 -0 -0 -0 0 0 0 0 -0 0 -0 -0 0 -0 -0 0 0 -0 0 -0 0 -0 -0 0 0 0 -0 0 -0 -0 -0 0 0 -0 -0 -0 -0 0 0 0 0 0 0
-0 -0 -0 -0 0 0 0 0 0 -0 -0 0 0 0 0 0 0 0 0 0 0 0 0 0 0 0 0 0 -0 0 0 -0 -0 -0 -0 -0 -0 0 0 0 0 -0 -0 0
-0 -0 -0 -0 -0 0 0 0 0 0 0 0 0 0 0 0 0 -0 0 -0 0 -0 -0 0 0 0 0 0 0 0 0 0 0 0 0 0 0 0 0 0 0 0 0 0
0 0 0 0 0 0 0 0 0 0 0 0 -0 0 0 0 0 0 0 0 0 0 0 0 0 0 0 0 0 0 0 0 0 0 0 0 0 0 0 0 0 0 0 0
0 0 0 0 0 0 0 0 -0 0 0 0 -0 -0 0 0 0 -0 0 0 0 0 0 0 0 0 0 0 0 0 0 0 0 0 0 0 0 0 0 0 0 0 0 0
0 0 0 0 -0 -0 -0 0 0 0 0 0 -0 -0 -0 -0 0 0 0 0 0 0 0 0 -0 -0 0 0 -0 -0 -0 0 0 0 0 0 0 0 0 0 0 0 0 0
0 0 -0 -0 0 -0 -0 0 0 -0 0 0 0 0 -0 0 -0 0 -0 0 0 -0 0 0 -0 -0 -0 -0 0 0 -0 -0 0 -0 0 0 -0 0 0 0 0 0 0 0
-0 0 0 0 0 -0 0 0 0 0 0 0 -0 -0 0 0 -0 0 -0 0 -0 -0 -0 -0 -0 0 0 -0 -0 -0 0 0 0 -0 -0 0 -0 0 0 0 0 0 0 0
0 0 0 0 0 0 0 0 -0 -0 0 0 0 0 -0 0 0 -0 -0 -0 0 -0 -0 0 0 0 0 0 -0 0 -0 -0 0 0 0 0 0 -0 0 0 0 0 0 0
0 0 0 0 0 0 0 0 0 0 0 0 0 0 0 0 -0 0 -0 0 -0 -0 0 -0 0 0 0 0 0 0 0 0 0 0 0 0 0 0 0 0 0 0 0 0
0 0 0 0 0 0 0 0 0 0 0 0 0 0 0 0 0 0 0 0 0 0 -0 0 -0 0 0 -0 -0 -0 0 0 -0 0 0 0 0 0 0 0 0 0 0 0
0 0 0 0 0 0 0 0 0 0 0 0 0 0 0 0 0 0 0 0 0 0 0 -0 0 0 -0 -0 -0 -0 -0 -0 0 0 0 0 0 0 0 0 0 -0 0 0
0 0 0 0 0 0 0 -0 0 -0 -0 0 0 0 0 0 0 0 0 0 0 0 0 0 0 0 0 -0 -0 -0 0 0 0 0 -0 0 0 0 0 0 0 0 0 0
Wind_Speed_500mb
58 61 58 43 14 8 18 12 10 5 3 18 26 6 10 6 11 4 5 8 13 5 3 3 12 16 16 13 16 8 11 7 8 13 20 14 27 21 21 8 12 20 16 21
57 60 61 43 11 14 9 18 11 10 6 11 11 15 19 12 3 6 1 4 8 6 6 8 22 14 13 19 20 8 14 4 8 17 17 8 13 17 15 14 12 22 22 20
58 60 60 46 9 10 8 14 6 6 4 10 8 20 13 11 16 12 7 8 11 10 10 11 20 18 11 17 17 8 8 2 8 14 16 13 9 15 12 9 10 23 23 43
59 58 59 49 14 6 3 6 8 5 8 10 11 8 15 13 7 3 3 4 6 17 7 20 21 19 16 13 4 8 10 4 8 13 8 11 10 16 30 28 26 19 38 41
59 57 56 46 33 12 14 10 5 5 12 10 13 1 9 13 15 8 6 8 7 6 15 9 21 18 15 10 6 8 6 4 9 15 15 7 33 29 26 26 32 26 34 33
56 56 52 48 38 33 19 15 10 4 4 7 8 13 7 14 12 17 16 12 16 28 21 29 27 30 23 12 7 8 4 8 5 1 5 11 23 27 27 26 32 27 24 36
50 49 53 45 36 34 23 17 14 4 14 16 12 16 18 15 15 17 9 16 24 14 10 19 22 22 22 19 15 10 5 9 6 7 11 9 16 30 31 28 27 31 28 31
48 48 47 47 39 38 27 29 20 24 16 23 20 19 21 23 23 23 19 19 20 24 26 19 14 13 15 14 11 9 10 15 5 4 10 25 7 28 32 29 15 39 25 39
42 45 48 39 44 42 26 34 21 22 30 27 6 11 10 14 15 17 19 14 13 13 12 13 16 5 9 13 16 12 7 8 6 8 2 6 12 32 44 39 6 37 41 42
37 34 48 50 46 45 33 33 33 37 43 44 46 32 18 24 17 11 15 12 11 11 12 17 6 12 9 12 10 10 15 14 13 12 4 10 22 32 32 16 15 34 20 28
36 31 34 38 42 42 42 52 51 64 57 51 46 42 37 31 33 11 8 9 6 15 11 6 3 11 12 15 22 9 13 8 10 11 9 8 33 13 10 5 13 19 19 33
33 33 35 36 37 45 45 48 42 47 51 46 42 41 33 27 22 15 6 11 10 17 7 4 4 12 7 17 7 15 8 8 5 7 5 5 19 15 4 5 6 18 15 23
30 27 29 32 35 38 38 30 24 23 34 42 45 46 39 36 37 15 20 24 6 11 11 15 10 16 9 9 14 9 10 10 6 7 5 8 17 18 12 10 15 19 23 17
35 17 18 5 22 34 32 26 24 27 37 34 30 34 45 40 42 41 32 26 24 24 19 28 14 13 19 14 15 14 11 11 9 14 19 2 15 17 18 17 20 22 25 20
42 22 13 16 16 29 31 25 29 27 17 28 39 34 34 34 33 34 35 39 36 35 34 29 14 22 13 23 17 15 20 7 6 5 1 2 12 16 17 17 20 22 22 23
34 29 16 18 22 13 10 21 19 26 26 7 8 21 23 30 30 32 32 30 31 29 27 18 17 11 7 7 7 10 16 11 12 6 4 6 12 7 14 15 16 18 24 17
28 32 36 28 20 24 13 11 9 11 13 4 6 11 11 16 16 23 26 26 24 31 24 18 25 14 14 5 4 15 11 6 10 6 11 7 15 16 16 13 17 16 15 16
20 22 26 24 26 30 18 10 8 6 9 12 7 7 5 12 10 9 18 17 22 20 14 15 13 10 9 4 2 10 10 2 1 3 5 5 9 15 15 12 18 16 18 15
12 11 12 20 19 8 10 23 25 21 9 5 7 3 5 7 13 13 3 5 6 10 14 10 11 6 7 9 14 14 12 8 6 8 10 10 12 12 15 14 17 17 15 15
14 15 4 5 9 6 6 6 3 6 7 13 21 12 3 7 7 5 4 3 7 5 4 10 6 2 15 16 20 21 15 10 10 10 8 12 4 5 13 10 11 12 11 11
16 10 10 7 11 6 4 4 10 9 7 10 13 13 8 11 3 5 6 3 8 4 8 3 5 5 21 24 15 5 12 10 10 14 18 17 13 11 5 7 8 7 6 6
10 7 5 6 7 8 10 4 9 10 5 7 8 8 4 8 7 7 3 5 8 5 13 7 4 4 12 21 18 15 10 9 10 12 15 16 12 12 3 8 8 7 6 7
3 7 7 7 2 9 9 12 8 5 7 8 7 10 7 4 7 5 6 4 3 9 7 2 8 7 14 13 10 14 19 15 4 13 16 11 7 13 10 11 13 13 15 14
6 3 5 3 8 8 2 5 4 5 4 11 8 5 7 7 6 3 3 7 10 7 3 5 6 10 13 14 16 14 11 19 13 13 9 8 9 12 17 16 19 20 23 20
7 2 3 8 18 14 15 17 11 10 11 9 8 11 14 13 5 6 4 2 7 4 5 8 17 10 11 14 16 16 16 16 17 19 18 14 14 16 20 18 21 26 24 29
6 5 10 11 1 9 6 18 2 9 16 12 11 8 5 7 3 3 9 5 5 4 7 25 18 10 11 13 15 15 15 15 15 12 14 17 16 18 13 18 21 24 31 31
4 11 16 15 9 3 8 7 10 6 9 7 5 5 7 7 5 5 2 4 7 17 21 18 10 7 10 13 15 14 15 16 16 17 17 16 17 19 14 21 22 30 30 28
Wind_Direction_500mb
5 3 2 356 349 182 199 274 251 11 190 221 233 307 81 68 83 90 35 355 337 318 110 245 71 88 45 354 315 31 39 329 299 30 74 53 65 50 30 3 336 325 289 273
7 5 4 1 353 178 219 254 290 11 199 251 228 111 82 51 77 26 202 110 355 313 117 106 96 94 50 42 14 23 8 119 263 149 149 128 59 26 8 346 293 278 281 286
10 9 8 8 7 200 244 284 236 119 234 310 16 127 141 106 50 50 66 100 125 135 135 74 121 125 71 52 64 0 294 77 333 8 35 23 341 8 3 343 303 336 312 337
12 12 14 16 31 113 256 331 64 352 7 90 96 195 143 138 147 64 59 147 175 127 121 122 119 111 138 115 99 63 359 171 359 344 359 22 340 12 41 25 2 344 348 337
13 15 19 30 41 59 44 3 353 49 72 89 119 328 146 118 80 317 148 135 92 144 106 231 148 154 151 99 89 46 23 66 308 270 187 227 75 51 27 15 20 7 350 345
16 20 24 33 53 55 61 51 33 16 168 117 102 62 63 93 124 10 67 129 116 86 59 60 67 62 64 69 48 86 10 341 259 84 63 191 80 24 22 30 43 28 6 352
17 21 24 33 46 53 46 20 338 233 66 66 77 87 74 56 52 113 89 6 118 92 127 114 113 110 117 97 81 29 352 284 288 291 258 271 126 33 15 73 48 24 6 354
20 25 29 37 46 51 40 21 44 94 100 109 101 111 112 111 91 78 75 53 92 139 156 134 130 141 137 99 95 105 34 292 41 328 321 125 56 3 345 330 65 28 1 354
30 32 31 42 55 50 48 40 56 105 100 20 14 136 148 132 126 108 101 87 128 180 223 230 228 123 159 163 161 150 167 21 339 352 327 16 21 334 324 298 82 17 11 354
33 37 48 61 60 54 58 48 65 85 80 39 42 28 13 22 30 145 117 123 153 214 252 224 246 118 335 63 83 8 7 28 6 7 62 93 348 348 343 47 338 342 341 1
33 36 40 72 65 67 62 65 75 88 81 59 50 43 32 26 26 20 93 187 191 201 272 350 270 86 84 92 47 49 42 349 38 355 16 69 359 11 50 318 324 302 340 342
34 46 77 67 68 79 73 74 73 83 86 80 62 56 48 38 25 359 122 81 39 9 7 57 92 59 77 101 87 67 47 44 62 46 61 52 35 59 58 1 334 348 340 341
32 55 97 84 77 72 64 58 57 72 94 67 53 46 42 45 42 63 78 66 114 61 23 31 76 76 46 96 53 100 61 51 89 91 39 64 55 43 29 23 9 342 336 322
29 58 108 91 50 66 58 47 44 68 81 78 59 53 51 54 62 69 74 84 80 79 84 79 68 76 60 67 79 62 36 25 32 105 46 46 30 17 7 3 3 355 353 346
32 58 85 37 78 76 59 65 58 57 59 98 86 65 57 62 61 61 65 60 70 78 80 84 79 62 83 114 87 39 61 50 44 46 55 342 335 349 357 353 356 348 352 1
41 48 71 71 110 79 72 75 55 75 89 65 78 73 56 50 49 56 64 68 73 76 75 62 69 55 342 45 84 32 72 67 47 51 350 350 348 350 356 350 342 334 338 9
54 66 71 76 59 37 69 86 125 58 42 41 69 105 40 31 55 58 61 79 64 84 93 72 72 55 45 55 85 323 56 91 89 50 351 346 6 354 334 348 346 333 1 19
53 66 69 69 67 55 51 58 58 63 352 29 24 72 19 19 49 71 52 53 66 54 67 72 56 49 45 58 244 331 344 110 68 44 351 317 334 1 3 354 345 14 21 16
40 51 70 55 26 67 56 60 65 52 358 60 60 64 13 2 28 70 329 65 67 61 83 94 75 8 34 289 299 290 303 279 259 270 285 322 338 350 357 18 10 19 22 21
45 358 273 100 6 46 22 339 77 52 13 76 40 43 352 26 29 271 142 116 142 138 144 111 87 176 241 281 280 270 284 271 279 280 328 327 307 337 340 18 17 19 22 23
359 341 35 358 31 327 299 55 348 33 16 61 43 25 357 2 325 287 147 225 174 121 159 184 66 36 11 26 39 184 261 290 285 279 283 304 311 306 323 349 350 11 18 17
26 13 356 315 332 11 312 359 134 20 60 25 8 333 336 307 305 287 147 259 212 92 128 70 28 338 34 39 41 14 347 322 296 299 294 305 298 297 290 302 307 312 298 281
332 355 350 23 106 15 5 348 46 16 359 335 352 340 301 256 265 298 333 11 63 67 58 130 217 59 47 31 5 345 350 353 313 308 294 285 246 339 297 280 273 275 277 284
312 46 0 310 360 47 83 90 193 236 276 299 331 305 278 262 268 119 133 316 65 50 64 244 64 47 31 13 6 1 15 8 345 355 355 333 263 302 318 299 284 282 277 291
356 273 229 60 47 49 41 20 21 318 336 299 285 314 251 259 219 111 64 43 57 181 229 127 95 66 34 13 11 5 34 22 14 21 18 9 1 349 340 343 324 317 299 286
315 7 25 51 91 76 9 306 263 288 300 310 299 267 263 270 85 65 33 87 204 252 135 94 97 64 27 7 3 3 359 357 6 2 352 351 343 332 332 347 351 342 337 328
42 6 33 36 55 51 18 336 6 313 322 305 331 283 354 359 39 79 9 227 153 102 87 80 73 51 24 8 2 359 4 5 3 357 349 341 339 333 348 344 346 349 352 352
Wind_Speed_850mb
58 61 58 43 14 8 18 12 10 5 3 18 26 6 10 6 11 4 5 8 13 5 3 3 12 16 16 13 16 8 11 7 8 13 20 14 27 21 21 8 12 20 16 21
57 60 61 43 11 14 9 18 11 10 6 11 11 15 19 12 3 6 1 4 8 6 6 8 22 14 13 19 20 8 14 4 8 17 17 8 13 17 15 14 12 22 22 20
58 60 60 46 9 10 8 14 6 6 4 10 8 20 13 11 16 12 7 8 11 10 10 11 20 18 11 17 17 8 8 2 8 14 16 13 9 15 12 9 10 23 23 43
59 58 59 49 14 6 3 6 8 5 8 10 11 8 15 13 7 3 3 4 6 17 7 20 21 19 16 13 4 8 10 4 8 13 8 11 10 16 30 28 26 19 38 41
59 57 56 46 33 12 14 10 5 5 12 10 13 1 9 13 15 8 6 8 7 6 15 9 21 18 15 10 6 8 6 4 9 15 15 7 33 29 26 26 32 26 34 33
56 56 52 48 38 33 19 15 10 4 4 7 8 13 7 14 12 17 16 12 16 28 21 29 27 30 23 12 7 8 4 8 5 1 5 11 23 27 27 26 32 27 24 36
50 49 53 45 36 34 23 17 14 4 14 16 12 16 18 15 15 17 9 16 24 14 10 19 22 22 22 19 15 10 5 9 6 7 11 9 16 30 31 28 27 31 28 31
48 48 47 47 39 38 27 29 20 24 16 23 20 19 21 23 23 23 19 19 20 24 26 19 14 13 15 14 11 9 10 15 5 4 10 25 7 28 32 29 15 39 25 39
42 45 48 39 44 42 26 34 21 22 30 27 6 11 10 14 15 17 19 14 13 13 12 13 16 5 9 13 16 12 7 8 6 8 2 6 12 32 44 39 6 37 41 42
37 34 48 50 46 45 33 33 33 37 43 44 46 32 18 24 17 11 15 12 11 11 12 17 6 12 9 12 10 10 15 14 13 12 4 10 22 32 32 16 15 34 20 28
36 31 34 38 42 42 42 52 51 64 57 51 46 42 37 31 33 11 8 9 6 15 11 6 3 11 12 15 22 9 13 8 10 11 9 8 33 13 10 5 13 19 19 33
33 33 35 36 37 45 45 48 42 47 51 46 42 41 33 27 22 15 6 11 10 17 7 4 4 12 7 17 7 15 8 8 5 7 5 5 19 15 4 5 6 18 15 23
30 27 29 32 35 38 38 30 24 23 34 42 45 46 39 36 37 15 20 24 6 11 11 15 10 16 9 9 14 9 10 10 6 7 5 8 17 18 12 10 15 19 23 17
35 17 18 5 22 34 32 26 24 27 37 34 30 34 45 40 42 41 32 26 24 24 19 28 14 13 19 14 15 14 11 11 9 14 19 2 15 17 18 17 20 22 25 20
42 22 13 16 16 29 31 25 29 27 17 28 39 34 34 34 33 34 35 39 36 35 34 29 14 22 13 23 17 15 20 7 6 5 1 2 12 16 17 17 20 22 22 23
34 29 16 18 22 13 10 21 19 26 26 7 8 21 23 30 30 32 32 30 31 29 27 18 17 11 7 7 7 10 16 11 12 6 4 6 12 7 14 15 16 18 24 17
28 32 36 28 20 24 13 11 9 11 13 4 6 11 11 16 16 23 26 26 24 31 24 18 25 14 14 5 4 15 11 6 10 6 11 7 15 16 16 13 17 16 15 16
20 22 26 24 26 30 18 10 8 6 9 12 7 7 5 12 10 9 18 17 22 20 14 15 13 10 9 4 2 10 10 2 1 3 5 5 9 15 15 12 18 16 18 15
12 11 12 20 19 8 10 23 25 21 9 5 7 3 5 7 13 13 3 5 6 10 14 10 11 6 7 9 14 14 12 8 6 8 10 10 12 12 15 14 17 17 15 15
14 15 4 5 9 6 6 6 3 6 7 13 21 12 3 7 7 5 4 3 7 5 4 10 6 2 15 16 20 21 15 10 10 10 8 12 4 5 13 10 11 12 11 11
16 10 10 7 11 6 4 4 10 9 7 10 13 13 8 11 3 5 6 3 8 4 8 3 5 5 21 24 15 5 12 10 10 14 18 17 13 11 5 7 8 7 6 6
10 7 5 6 7 8 10 4 9 10 5 7 8 8 4 8 7 7 3 5 8 5 13 7 4 4 12 21 18 15 10 9 10 12 15 16 12 12 3 8 8 7 6 7
3 7 7 7 2 9 9 12 8 5 7 8 7 10 7 4 7 5 6 4 3 9 7 2 8 7 14 13 10 14 19 15 4 13 16 11 7 13 10 11 13 13 15 14
6 3 5 3 8 8 2 5 4 5 4 11 8 5 7 7 6 3 3 7 10 7 3 5 6 10 13 14 16 14 11 19 13 13 9 8 9 12 17 16 19 20 23 20
7 2 3 8 18 14 15 17 11 10 11 9 8 11 14 13 5 6 4 2 7 4 5 8 17 10 11 14 16 16 16 16 17 19 18 14 14 16 20 18 21 26 24 29
6 5 10 11 1 9 6 18 2 9 16 12 11 8 5 7 3 3 9 5 5 4 7 25 18 10 11 13 15 15 15 15 15 12 14 17 16 18 13 18 21 24 31 31
4 11 16 15 9 3 8 7 10 6 9 7 5 5 7 7 5 5 2 4 7 17 21 18 10 7 10 13 15 14 15 16 16 17 17 16 17 19 14 21 22 30 30 28
Wind_Direction_850mb
5 3 2 356 349 182 199 274 251 11 190 221 233 307 81 68 83 90 35 355 337 318 110 245 71 88 45 354 315 31 39 329 299 30 74 53 65 50 30 3 336 325 289 273
7 5 4 1 353 178 219 254 290 11 199 251 228 111 82 51 77 26 202 110 355 313 117 106 96 94 50 42 14 23 8 119 263 149 149 128 59 26 8 346 293 278 281 286
10 9 8 8 7 200 244 284 236 119 234 310 16 127 141 106 50 50 66 100 125 135 135 74 121 125 71 52 64 0 294 77 333 8 35 23 341 8 3 343 303 336 312 337
12 12 14 16 31 113 256 331 64 352 7 90 96 195 143 138 147 64 59 147 175 127 121 122 119 111 138 115 99 63 359 171 359 344 359 22 340 12 41 25 2 344 348 337
13 15 19 30 41 59 44 3 353 49 72 89 119 328 146 118 80 317 148 135 92 144 106 231 148 154 151 99 89 46 23 66 308 270 187 227 75 51 27 15 20 7 350 345
16 20 24 33 53 55 61 51 33 16 168 117 102 62 63 93 124 10 67 129 116 86 59 60 67 62 64 69 48 86 10 341 259 84 63 191 80 24 22 30 43 28 6 352
17 21 24 33 46 53 46 20 338 233 66 66 77 87 74 56 52 113 89 6 118 92 127 114 113 110 117 97 81 29 352 284 288 291 258 271 126 33 15 73 48 24 6 354
20 25 29 37 46 51 40 21 44 94 100 109 101 111 112 111 91 78 75 53 92 139 156 134 130 141 137 99 95 105 34 292 41 328 321 125 56 3 345 330 65 28 1 354
30 32 31 42 55 50 48 40 56 105 100 20 14 136 148 132 126 108 101 87 128 180 223 230 228 123 159 163 161 150 167 21 339 352 327 16 21 334 324 298 82 17 11 354
33 37 48 61 60 54 58 48 65 85 80 39 42 28 13 22 30 145 117 123 153 214 252 224 246 118 335 63 83 8 7 28 6 7 62 93 348 348 343 47 338 342 341 1
33 36 40 72 65 67 62 65 75 88 81 59 50 43 32 26 26 20 93 187 191 201 272 350 270 86 84 92 47 49 42 349 38 355 16 69 359 11 50 318 324 302 340 342
34 46 77 67 68 79 73 74 73 83 86 80 62 56 48 38 25 359 122 81 39 9 7 57 92 59 77 101 87 67 47 44 62 46 61 52 35 59 58 1 334 348 340 341
32 55 97 84 77 72 64 58 57 72 94 67 53 46 42 45 42 63 78 66 114 61 23 31 76 76 46 96 53 100 61 51 89 91 39 64 55 43 29 23 9 342 336 322
29 58 108 91 50 66 58 47 44 68 81 78 59 53 51 54 62 69 74 84 80 79 84 79 68 76 60 67 79 62 36 25 32 105 46 46 30 17 7 3 3 355 353 346
32 58 85 37 78 76 59 65 58 57 59 98 86 65 57 62 61 61 65 60 70 78 80 84 79 62 83 114 87 39 61 50 44 46 55 342 335 349 357 353 356 348 352 1
41 48 71 71 110 79 72 75 55 75 89 65 78 73 56 50 49 56 64 68 73 76 75 62 69 55 342 45 84 32 72 67 47 51 350 350 348 350 356 350 342 334 338 9
54 66 71 76 59 37 69 86 125 58 42 41 69 105 40 31 55 58 61 79 64 84 93 72 72 55 45 55 85 323 56 91 89 50 351 346 6 354 334 348 346 333 1 19
53 66 69 69 67 55 51 58 58 63 352 29 24 72 19 19 49 71 52 53 66 54 67 72 56 49 45 58 244 331 344 110 68 44 351 317 334 1 3 354 345 14 21 16
40 51 70 55 26 67 56 60 65 52 358 60 60 64 13 2 28 70 329 65 67 61 83 94 75 8 34 289 299 290 303 279 259 270 285 322 338 350 357 18 10 19 22 21
45 358 273 100 6 46 22 339 77 52 13 76 40 43 352 26 29 271 142 116 142 138 144 111 87 176 241 281 280 270 284 271 279 280 328 327 307 337 340 18 17 19 22 23
359 341 35 358 31 327 299 55 348 33 16 61 43 25 357 2 325 287 147 225 174 121 159 184 66 36 11 26 39 184 261 290 285 279 283 304 311 306 323 349 350 11 18 17
26 13 356 315 332 11 312 359 134 20 60 25 8 333 336 307 305 287 147 259 212 92 128 70 28 338 34 39 41 14 347 322 296 299 294 305 298 297 290 302 307 312 298 281
332 355 350 23 106 15 5 348 46 16 359 335 352 340 301 256 265 298 333 11 63 67 58 130 217 59 47 31 5 345 350 353 313 308 294 285 246 339 297 280 273 275 277 284
312 46 0 310 360 47 83 90 193 236 276 299 331 305 278 262 268 119 133 316 65 50 64 244 64 47 31 13 6 1 15 8 345 355 355 333 263 302 318 299 284 282 277 291
356 273 229 60 47 49 41 20 21 318 336 299 285 314 251 259 219 111 64 43 57 181 229 127 95 66 34 13 11 5 34 22 14 21 18 9 1 349 340 343 324 317 299 286
315 7 25 51 91 76 9 306 263 288 300 310 299 267 263 270 85 65 33 87 204 252 135 94 97 64 27 7 3 3 359 357 6 2 352 351 343 332 332 347 351 342 337 328
42 6 33 36 55 51 18 336 6 313 322 305 331 283 354 359 39 79 9 227 153 102 87 80 73 51 24 8 2 359 4 5 3 357 349 341 339 333 348 344 346 349 352 352